• In Portugal
  • List of Countries
  • For 7 days
  • Water Temperature
  • Satellite Maps
  • Weather Map
  • Weather Widgets
  • user-avatar
    Login

    Hourly Weather Ulaangom

    Today, 20 June, Wednesday

    Time Temperature Precipitation Wind Pressure Humidity
    00:00 +16°C° 0 mm 1 mps 624 mmHg 68%
    01:00 +15°C° 0 mm 1 mps 624 mmHg 68%
    02:00 +15°C° 0 mm 1 mps 624 mmHg 69%
    03:00 +15°C° 0 mm 1 mps 624 mmHg 69%
    04:00 +16°C° 0 mm 1 mps 624 mmHg 66%
    05:00 +16°C° 0 mm 1 mps 625 mmHg 62%
    06:00 +17°C° 0 mm 2 mps 625 mmHg 58%
    07:00 +18°C° 0 mm 2 mps 625 mmHg 54%
    08:00 +19°C° 0 mm 2 mps 626 mmHg 50%
    09:00 +20°C° 0 mm 2 mps 626 mmHg 46%
    10:00 +20°C° 0 mm 3 mps 626 mmHg 43%
    11:00 +21°C° 0 mm 3 mps 626 mmHg 40%
    12:00 +22°C° 0 mm 3 mps 626 mmHg 39%
    13:00 +22°C° 0 mm 3 mps 626 mmHg 38%
    14:00 +24°C° 0 mm 3 mps 626 mmHg 36%
    15:00 +24°C° 0 mm 3 mps 626 mmHg 35%
    16:00 +24°C° 0 mm 3 mps 626 mmHg 36%
    17:00 +22°C° 0 mm 3 mps 626 mmHg 38%
    18:00 +22°C° 0 mm 3 mps 625 mmHg 40%
    19:00 +21°C° 0.1 mm 2 mps 625 mmHg 45%
    20:00 +20°C° 0.1 mm 2 mps 625 mmHg 50%
    21:00 +19°C° 0.1 mm 2 mps 625 mmHg 55%
    22:00 +19°C° 0.4 mm 1 mps 625 mmHg 58%
    23:00 +18°C° 0.4 mm 1 mps 624 mmHg 61%

    Tomorrow, 21 June, Thursday

    Time Temperature Precipitation Wind Pressure Humidity
    00:00 +18°C° 0.4 mm 1 mps 624 mmHg 64%
    01:00 +18°C° 0.1 mm 1 mps 624 mmHg 64%
    02:00 +18°C° 0.1 mm 1 mps 624 mmHg 64%
    03:00 +16°C° 0.1 mm 1 mps 624 mmHg 64%
    04:00 +18°C° 0 mm 1 mps 624 mmHg 62%
    05:00 +18°C° 0 mm 1 mps 624 mmHg 60%
    06:00 +17°C° 0 mm 2 mps 624 mmHg 58%
    07:00 +18°C° 0 mm 2 mps 625 mmHg 55%
    08:00 +19°C° 0 mm 2 mps 625 mmHg 53%
    09:00 +20°C° 0 mm 3 mps 625 mmHg 50%
    10:00 +20°C° 0.2 mm 3 mps 625 mmHg 48%
    11:00 +21°C° 0.2 mm 2 mps 625 mmHg 46%
    12:00 +21°C° 0.2 mm 2 mps 625 mmHg 44%
    13:00 +21°C° 0.2 mm 2 mps 625 mmHg 43%
    14:00 +21°C° 0.2 mm 3 mps 625 mmHg 43%
    15:00 +22°C° 0.2 mm 3 mps 625 mmHg 43%
    16:00 +21°C° 0.7 mm 3 mps 625 mmHg 46%
    17:00 +20°C° 0.7 mm 4 mps 625 mmHg 50%
    18:00 +19°C° 0.7 mm 5 mps 625 mmHg 54%
    19:00 +17°C° 0.7 mm 5 mps 625 mmHg 58%
    20:00 +16°C° 0.7 mm 5 mps 625 mmHg 62%
    21:00 +15°C° 0.7 mm 6 mps 626 mmHg 65%
    22:00 +15°C° 0.3 mm 5 mps 626 mmHg 63%
    23:00 +15°C° 0.3 mm 5 mps 626 mmHg 61%

    Day after tomorrow, 22 June, Friday

    Time Temperature Precipitation Wind Pressure Humidity
    00:00 +15°C° 0.3 mm 4 mps 626 mmHg 58%
    01:00 +14°C° 0 mm 4 mps 626 mmHg 60%
    02:00 +13°C° 0 mm 3 mps 626 mmHg 61%
    03:00 +13°C° 0 mm 3 mps 626 mmHg 62%
    04:00 +13°C° 0 mm 3 mps 626 mmHg 59%
    05:00 +14°C° 0 mm 3 mps 627 mmHg 56%
    06:00 +16°C° 0 mm 3 mps 627 mmHg 53%
    07:00 +16°C° 0 mm 3 mps 627 mmHg 49%
    08:00 +17°C° 0 mm 3 mps 628 mmHg 45%
    09:00 +18°C° 0 mm 2 mps 628 mmHg 41%
    10:00 +19°C° 0.2 mm 2 mps 628 mmHg 39%
    11:00 +20°C° 0.2 mm 2 mps 628 mmHg 37%
    12:00 +20°C° 0.2 mm 2 mps 628 mmHg 35%
    13:00 +20°C° 0.2 mm 2 mps 627 mmHg 34%
    14:00 +21°C° 0.2 mm 2 mps 627 mmHg 33%
    15:00 +21°C° 0.2 mm 2 mps 627 mmHg 32%
    16:00 +21°C° 0.3 mm 2 mps 627 mmHg 33%
    17:00 +21°C° 0.3 mm 3 mps 627 mmHg 34%
    18:00 +20°C° 0.3 mm 3 mps 627 mmHg 35%
    19:00 +19°C° 0.3 mm 3 mps 627 mmHg 39%
    20:00 +18°C° 0.3 mm 2 mps 627 mmHg 42%
    21:00 +17°C° 0.3 mm 2 mps 627 mmHg 46%
    22:00 +17°C° 0.2 mm 2 mps 626 mmHg 48%
    23:00 +16°C° 0.2 mm 1 mps 626 mmHg 50%

    23 June, Saturday

    Time Temperature Precipitation Wind Pressure Humidity
    00:00 +16°C° 0.2 mm 1 mps 626 mmHg 52%
    01:00 +15°C° 0.3 mm 1 mps 626 mmHg 53%
    02:00 +15°C° 0.3 mm 1 mps 626 mmHg 54%
    03:00 +14°C° 0.3 mm 1 mps 625 mmHg 55%
    04:00 +15°C° 0.2 mm 1 mps 626 mmHg 53%
    05:00 +16°C° 0.2 mm 1 mps 626 mmHg 51%
    06:00 +16°C° 0.2 mm 1 mps 626 mmHg 49%
    07:00 +18°C° 0.3 mm 1 mps 626 mmHg 46%
    08:00 +19°C° 0.3 mm 1 mps 626 mmHg 44%
    09:00 +20°C° 0.3 mm 1 mps 626 mmHg 41%
    10:00 +20°C° 0.3 mm 1 mps 626 mmHg 39%
    11:00 +21°C° 0.3 mm 1 mps 626 mmHg 37%
    12:00 +22°C° 0.3 mm 1 mps 626 mmHg 35%
    13:00 +22°C° 0.3 mm 1 mps 626 mmHg 34%
    14:00 +21°C° 0.3 mm 2 mps 626 mmHg 33%
    15:00 +23°C° 0.3 mm 2 mps 626 mmHg 31%
    16:00 +23°C° 0.3 mm 2 mps 626 mmHg 32%
    17:00 +23°C° 0.3 mm 2 mps 626 mmHg 32%
    18:00 +21°C° 0.3 mm 3 mps 626 mmHg 33%
    19:00 +20°C° 0.4 mm 3 mps 626 mmHg 36%
    20:00 +19°C° 0.4 mm 2 mps 626 mmHg 38%
    21:00 +18°C° 0.4 mm 2 mps 626 mmHg 41%
    22:00 +18°C° 0.3 mm 2 mps 625 mmHg 42%
    23:00 +18°C° 0.3 mm 2 mps 625 mmHg 44%

    24 June, Sunday

    Time Temperature Precipitation Wind Pressure Humidity
    00:00 +17°C° 0.3 mm 2 mps 625 mmHg 46%
    01:00 +17°C° 0 mm 2 mps 625 mmHg 47%
    02:00 +16°C° 0 mm 1 mps 624 mmHg 49%
    03:00 +15°C° 0 mm 1 mps 624 mmHg 51%
    04:00 +16°C° 0 mm 1 mps 624 mmHg 48%
    05:00 +18°C° 0 mm 1 mps 625 mmHg 46%
    06:00 +18°C° 0 mm 1 mps 625 mmHg 43%
    07:00 +19°C° 0 mm 1 mps 625 mmHg 41%
    08:00 +20°C° 0 mm 1 mps 626 mmHg 40%
    09:00 +21°C° 0 mm 1 mps 626 mmHg 38%
    10:00 +21°C° 0.1 mm 2 mps 626 mmHg 36%
    11:00 +21°C° 0.1 mm 2 mps 626 mmHg 34%
    12:00 +22°C° 0.1 mm 3 mps 626 mmHg 32%
    13:00 +24°C° 0 mm 3 mps 625 mmHg 31%
    14:00 +24°C° 0 mm 3 mps 625 mmHg 29%
    15:00 +24°C° 0 mm 3 mps 625 mmHg 28%
    16:00 +24°C° 0.2 mm 3 mps 625 mmHg 31%
    17:00 +22°C° 0.2 mm 3 mps 625 mmHg 33%
    18:00 +22°C° 0.2 mm 3 mps 625 mmHg 36%
    19:00 +21°C° 0.3 mm 3 mps 625 mmHg 40%
    20:00 +20°C° 0.3 mm 2 mps 625 mmHg 45%
    21:00 +19°C° 0.3 mm 2 mps 625 mmHg 50%
    22:00 +18°C° 0.3 mm 2 mps 625 mmHg 52%
    23:00 +18°C° 0.3 mm 2 mps 625 mmHg 54%

    25 June, Monday

    Time Temperature Precipitation Wind Pressure Humidity
    00:00 +18°C° 0.3 mm 1 mps 624 mmHg 56%
    01:00 +18°C° 0.1 mm 1 mps 624 mmHg 56%
    02:00 +16°C° 0.1 mm 1 mps 624 mmHg 57%
    03:00 +16°C° 0.1 mm 1 mps 624 mmHg 57%
    04:00 +18°C° 0.1 mm 1 mps 625 mmHg 54%
    05:00 +18°C° 0.1 mm 1 mps 625 mmHg 51%
    06:00 +19°C° 0.1 mm 1 mps 625 mmHg 47%
    07:00 +20°C° 0.2 mm 1 mps 626 mmHg 44%
    08:00 +21°C° 0.2 mm 1 mps 626 mmHg 42%
    09:00 +22°C° 0.2 mm 1 mps 626 mmHg 39%
    10:00 +23°C° 0.1 mm 1 mps 626 mmHg 37%
    11:00 +24°C° 0.1 mm 2 mps 626 mmHg 35%
    12:00 +24°C° 0.1 mm 2 mps 626 mmHg 32%
    13:00 +25°C° 0.1 mm 2 mps 626 mmHg 31%
    14:00 +25°C° 0.1 mm 3 mps 626 mmHg 30%
    15:00 +26°C° 0.1 mm 3 mps 626 mmHg 29%
    16:00 +25°C° 0.1 mm 3 mps 625 mmHg 31%
    17:00 +25°C° 0.1 mm 3 mps 625 mmHg 33%
    18:00 +24°C° 0.1 mm 3 mps 625 mmHg 35%
    19:00 +23°C° 0.2 mm 2 mps 624 mmHg 39%
    20:00 +21°C° 0.2 mm 2 mps 624 mmHg 43%
    21:00 +21°C° 0.2 mm 1 mps 624 mmHg 47%
    22:00 +21°C° 0.1 mm 1 mps 623 mmHg 48%
    23:00 +20°C° 0.1 mm 1 mps 623 mmHg 49%
    Show more